SORAYA

Satellite information

Favourite Embed

Satellite Type and Status

PAYLOADIN ORBIT

Key statistics

Satellite SORAYA at a glance.

Uptime

694

Days in orbit

Revolutions

≈ 14.4

Per day

Orbit

LEO

Low Earth Orbit

Inclination

64.5

Latest

Satellite identification and parameters

Extended collection of information and parameters for SORAYA.

Object identification

Identified? True

Debris? False

Object name: SORAYA

International designator: 2024-015A

Object number (NORAD): 58817

Object ID (CCSDS): 58817

Country: IRAN (IRAN)

Current information (Y/N): Y

RCS size: MEDIUM

Orbital parameters

Period: 99.818 minutes

Inclination: 64.5155 deg

SMA: 7127.981 km

Apoapsis: 764.97 km

Periapsis: 734.722 km

RAAN: 259.7021 deg

Eccentricy: 0.00212183

Argument of periapsis: 228.456 deg

Mean anomaly: 131.4707 deg

Mean motion: 14.42623337 rev/day

Mean motion (dot): 0.00000236 rev/day2

B* drag term: 0.0001029144 1/REarth

Two-line elements (TLE)

Creation date: Dec. 14, 2025, 3:07 a.m.

Reference frame: TEME

Reference center: EARTH

Epoch: Dec. 13, 2025, 4:29 p.m. UTC

TLE line 0: 0 SORAYA

TLE line 1: 1 58817U 24015A 25347.68747462 .00000236 00000-0 10291-3 0 9993

TLE line 2: 2 58817 64.5155 259.7021 0021218 228.4560 131.4707 14.42623337100014

Live tracking on map

Real-time ground track for satellite SORAYA.

In-orbit conjunctions

There are no conjunctions computed for SORAYA, at the moment. Check back to stay up to date, as we update our databases every day.

Go to all conjunctions

Associated space launch

Satellite of unknown purposes for the Iranian Space Organization, orbiting in an 750 km high LEO.

SORAYA was lifted into orbit during the mission ‘Qaem 100 | Soraya’, on board a Qaem 100 space rocket.

The launch took place on Jan. 20, 2024, 6:28 a.m. from Launch Platform.

For more information about the launch, click the button.

Launch to space Qaem 100 | Soraya
Qaem 100 | Soraya

Agency: N/A

Status: Launch Successful

Launch date: Jan. 20, 2024, 6:28 a.m. UTC

Rocket: Qaem 100

Launch pad: Launch Platform

Location: Shahrud Missile Test Site, Islamic Republic of Iran

...

Latest news about this satellite

News about space launch
Rocket Report: Iran reaches orbit; Chinese firm achieves impressive landing test

"Our investors’ continued support is a recognition of our 18 months of hard work."


Newsletter sign-up

Weekly statistics, charts and insights to help you stay on top of the space industry.